Location: Newark
(16.3678°N, 77.8722°E)
Time: 14:10:36
(UTC+00:00)

S-56A Canister/Altair - Pass Details

Date: 13 December 2019
Orbit: 634 x 2498 km, 38.9° (Epoch: 18 January)

Event Time Altitude Azimuth Distance (km) Brightness Sun altitude
Rises 06:27:18 0° 293° (WNW) 5,905 11.9 50.3°
Reaches altitude 10° 06:32:02 10° 304° (NW) 5,050 11.6 50.4°
Maximum altitude 06:44:03 28° 358° (N) 3,849 11.0 50.5°
Drops below altitude 10° 06:55:33 10° 52° (NE) 4,825 11.4 50.4°
Sets 06:59:57 0° 64° (ENE) 5,608 11.7 50.3°
